Flag for Norway Weather past 2 weeks in Tromsø, Norway

Now
39 °F

Overcast.


Feels Like: 33 °F
Forecast: 36 / 53 °F
Wind: 8 mph from Northeast

Location: Tromso / Langnes

Current Time: May 25, 2015 at 12:34:01 PM

Latest Report: May 25, 2015 at 11:00 AM


Visibility: 28 mi

Pressure: 29.86 "Hg

Humidity: 79%

Dew point: 33 °F

Location of TromsøLocation

Historic Weather in Tromsø — Graph

°F

Tromsø temperature yesterday

Maximum temperature yesterday: 41 °F (at 3:00 PM)
Minimum temperature yesterday: 36 °F (at 1:00 AM)
Average temperature yesterday: 39 °F

Past Weeks' High & Low Weather Summary

 TemperatureHumidityPressure
High53 °F (May 22, 2:00 PM)92% (May 21, 6:00 AM)30.05 "Hg (May 21, 6:00 AM)
Low33 °F (May 17, 3:00 AM)33% (May 22, 2:00 PM)29.44 "Hg (May 23, 1:00 PM)
Average42 °F69%29.74 "Hg
* Reported May 10 11:00 AM — May 25 11:00 AM, Tromsø, Weather by CustomWeather, © 2015

Note: Actual official high and low records may vary slightly from our data, if they occured in-between our weather recording intervals... More about our weather records

Advertising

Tromsø weather history for previous 24 hours

 ConditionsComfort  
Time TempWeatherWind HumidityBarometerVisibility
11:00 AM
Mon, May 25
39 °FOvercast.8 mph79%29.86 "Hg28 mi
10:00 AM40 °FOvercast.1 mph72%29.85 "Hg28 mi
9:00 AM38 °FRain showers. Overcast.1 mph79%29.85 "Hg19 mi
8:00 AM37 °FLight rain. Haze.2 mph83%29.84 "Hg10 mi
7:00 AM38 °FOvercast.No wind85%29.82 "Hg31 mi
6:00 AM37 °FOvercast.1 mph86%29.81 "Hg31 mi
5:00 AM37 °FOvercast.No wind86%29.81 "Hg31 mi
4:00 AM36 °FLight rain. Overcast.1 mph88%29.81 "Hg4 mi
3:00 AM36 °FOvercast.1 mph88%29.81 "Hg31 mi
2:00 AM36 °FLight rain. Overcast.2 mph86%29.80 "Hg7 mi
1:00 AM37 °FOvercast.1 mph82%29.80 "Hg31 mi
12:00 AM38 °FOvercast.2 mph82%29.79 "Hg31 mi
10:00 PM
Sun, May 24
39 °FRain showers. Overcast.5 mph76%29.78 "Hg16 mi
9:00 PM40 °FOvercast.2 mph68%29.77 "Hg31 mi
8:00 PM40 °FOvercast.6 mph66%29.77 "Hg31 mi
7:00 PM40 °FOvercast.2 mph67%29.77 "Hg25 mi
6:00 PM40 °FRain showers. Overcast.No wind73%29.77 "Hg28 mi
5:00 PM38 °FOvercast.2 mph82%29.77 "Hg25 mi
4:00 PM38 °FOvercast.3 mph83%29.77 "Hg11 mi
3:00 PM41 °FOvercast.6 mph65%29.76 "Hg31 mi
2:00 PM40 °FOvercast.7 mph64%29.75 "Hg25 mi
1:00 PM39 °FOvercast.8 mph67%29.74 "Hg25 mi
12:00 PM40 °FOvercast.9 mph65%29.72 "Hg28 mi
Weather by CustomWeather, © 2015

See weather overviewHow to use our weather pages